Wind_Speed
15 15 16 16 16 15 14 14 15 15 15 14 13 13 13 14 14 14 13 13 13 13 13 13 12 12 11 9 10 9 9 9 8 8 8 7 6 7 7 7 7 8
16 16 16 17 17 17 17 15 14 14 15 15 13 12 12 13 14 14 14 13 13 13 13 13 12 12 11 10 10 10 9 9 8 7 8 8 7 7 7 8 8 8
17 17 17 17 16 17 17 16 16 15 14 14 14 13 12 12 12 13 14 14 13 12 13 13 12 12 11 11 11 10 9 9 8 7 8 9 7 7 8 8 8 8
19 18 18 17 16 16 15 15 16 16 15 13 13 13 12 12 12 13 14 14 13 13 13 13 13 12 11 11 11 10 9 10 8 8 9 9 8 8 8 8 7 7
20 19 19 18 17 16 16 16 16 16 15 14 13 13 13 14 13 13 13 13 14 13 13 13 13 12 12 12 12 10 9 9 9 9 10 9 9 8 8 8 8 8
21 22 21 19 19 18 17 17 16 16 15 15 14 13 13 14 14 13 13 13 13 12 12 12 12 12 12 12 12 11 11 10 9 10 10 9 9 8 8 8 8 8
20 22 22 21 20 20 19 18 17 17 16 15 15 14 14 14 14 14 14 13 12 12 12 12 12 12 12 11 12 12 12 11 10 11 11 10 9 9 9 8 9 9
19 20 21 21 21 21 21 19 18 18 18 17 16 16 15 15 15 14 14 14 13 12 12 12 12 13 12 11 12 12 12 12 11 11 11 10 9 10 9 9 9 9
20 20 20 21 21 22 21 21 20 19 19 19 19 17 17 17 16 15 14 14 14 13 13 13 13 13 12 12 12 12 12 11 10 10 10 10 9 10 9 8 8 9
20 20 21 21 22 22 22 21 21 20 19 19 19 18 17 17 17 16 15 16 16 15 14 14 14 14 13 13 12 12 12 11 11 11 11 10 10 10 9 10 11 10
20 20 21 22 22 22 22 22 21 20 20 19 19 19 18 17 17 17 17 17 17 15 14 14 14 14 15 15 13 12 12 12 12 12 11 11 11 10 10 14 15 13
20 20 21 22 22 22 22 22 22 21 20 20 19 19 19 18 17 17 16 17 17 15 14 14 15 15 16 17 15 13 13 13 13 12 12 11 10 11 13 15 15 14
20 20 21 21 21 21 21 21 21 21 21 20 20 19 19 19 18 17 16 16 17 16 15 14 15 17 17 18 17 15 14 14 13 12 11 10 10 13 15 13 12 14
23 21 20 21 20 20 21 21 20 21 21 20 20 20 20 19 19 18 17 16 16 15 15 14 15 17 17 17 17 15 14 13 12 12 12 10 11 13 13 12 13 14
24 23 22 23 22 22 22 21 20 21 21 21 21 20 20 19 19 19 18 17 16 15 15 16 16 16 15 15 14 13 13 13 14 14 14 12 12 13 13 13 14 14
22 23 24 25 25 25 25 23 22 21 21 22 22 22 21 21 20 20 19 19 17 16 16 16 17 17 17 17 16 14 15 16 16 16 15 13 13 13 13 14 15 15
22 23 25 25 25 25 25 24 23 21 22 23 23 23 23 23 22 21 20 19 18 17 17 16 16 18 20 19 18 17 17 17 17 17 16 15 15 14 14 14 16 16
22 23 25 25 24 24 24 24 23 22 23 23 22 23 24 24 23 22 20 20 18 17 17 16 17 20 22 19 18 18 17 16 14 14 15 15 15 14 14 15 17 17
22 23 24 24 24 23 23 23 24 24 24 22 20 22 24 24 23 21 20 20 18 17 17 15 18 23 22 19 18 18 17 14 12 13 14 14 14 14 15 17 17 16
22 24 24 25 25 24 22 23 24 24 23 21 20 21 22 23 23 21 21 20 19 18 16 16 20 24 22 19 19 19 17 15 14 14 15 15 15 15 15 16 15 13
20 23 24 24 24 24 23 23 23 23 23 21 20 20 21 22 22 21 21 20 19 17 15 18 23 23 21 20 20 19 18 17 16 16 16 16 16 16 17 17 15 15
19 23 24 22 22 23 22 22 23 23 23 23 22 20 20 20 21 21 20 20 20 19 17 19 23 22 21 21 21 20 19 17 16 16 15 13 12 13 15 16 15 15
17 19 20 20 21 21 21 21 21 21 21 23 23 20 20 20 20 20 20 19 21 20 17 19 24 23 21 22 21 20 19 17 15 15 13 11 12 12 13 13 13 14
16 16 15 15 17 18 18 18 18 19 20 21 20 19 19 20 21 22 22 21 22 21 19 21 25 23 21 20 19 18 18 16 16 15 13 12 13 14 15 15 16 17
15 16 14 13 13 14 15 15 14 15 17 18 18 19 19 19 20 21 22 22 22 22 21 22 23 21 19 18 17 16 17 17 16 15 12 11 14 16 17 16 16 15
12 13 12 12 12 13 15 15 14 14 15 16 18 19 19 19 20 21 21 21 20 19 19 20 20 19 18 17 16 16 16 15 13 12 12 13 14 15 13 11 10 9
Wind_Direction
207 210 205 201 200 199 200 203 203 203 204 206 213 216 217 219 219 217 217 226 236 240 240 242 246 249 249 252 257 253 247 249 246 249 259 265 266 264 266 268 268 272
204 210 210 205 203 201 199 200 200 204 209 210 210 212 216 219 222 223 221 224 232 236 238 240 242 245 241 240 251 250 248 252 246 244 255 260 260 263 266 268 269 271
205 208 212 209 207 206 203 203 204 205 209 212 211 212 216 219 222 224 223 223 225 228 235 238 239 242 241 239 245 247 247 251 245 239 249 256 260 262 263 267 269 269
208 207 209 210 210 210 208 209 211 209 206 209 212 214 216 216 216 219 222 223 223 222 227 234 234 234 236 240 244 244 244 249 248 245 251 257 260 260 260 264 265 266
214 210 208 209 211 212 211 211 213 212 210 211 212 215 218 216 213 214 219 225 229 228 228 233 235 232 232 238 241 238 240 248 254 259 263 264 262 261 261 262 262 265
218 216 212 209 210 212 212 212 212 212 213 214 215 216 219 218 215 214 218 223 228 230 230 232 235 234 233 238 240 236 235 239 242 250 259 265 263 260 259 261 265 270
218 218 217 214 211 211 212 213 214 213 213 215 216 216 216 217 217 217 220 223 224 227 229 230 232 232 230 233 240 241 241 240 240 245 252 258 261 260 260 263 268 274
216 216 217 216 213 213 212 211 214 215 215 215 216 217 216 216 218 219 221 222 223 225 228 229 233 236 234 233 238 244 245 245 246 251 256 258 263 267 269 268 270 276
216 214 215 215 215 215 213 212 213 214 216 217 218 219 218 217 219 220 222 222 222 224 228 229 232 235 234 233 238 242 244 247 248 250 254 260 265 271 275 274 272 273
220 216 215 216 215 215 216 215 214 214 216 218 219 220 220 220 221 219 221 225 225 226 230 232 233 233 231 233 238 242 245 248 250 251 256 262 264 267 271 267 260 260
223 218 216 217 216 217 217 216 216 215 215 217 218 219 220 221 222 221 221 226 228 229 233 236 235 233 231 232 235 240 246 250 252 257 261 264 266 268 266 261 258 259
224 220 217 217 218 219 218 218 218 217 216 216 215 216 219 220 222 222 222 225 228 229 230 235 237 234 234 235 237 240 247 251 253 257 260 260 264 263 259 259 262 264
224 222 219 218 218 220 220 220 220 219 219 218 217 216 217 218 221 222 223 225 230 232 232 236 239 240 239 240 240 241 245 249 251 251 253 255 260 262 262 263 261 260
222 222 221 220 219 218 220 220 221 221 221 220 221 219 218 219 220 222 225 228 231 234 235 237 241 245 247 246 246 246 245 247 249 251 256 260 260 261 266 269 263 260
220 221 222 224 224 223 224 224 222 223 223 221 222 222 222 222 221 222 225 228 231 233 235 238 241 243 245 243 242 244 244 245 251 259 266 266 259 262 269 273 271 270
218 220 224 228 231 231 231 231 228 226 226 227 226 225 224 223 222 222 223 225 229 233 235 240 243 242 241 238 235 239 246 252 257 265 269 262 255 262 271 274 276 276
214 219 224 228 230 232 233 234 233 230 231 234 236 234 231 230 229 227 226 226 230 234 235 238 241 242 243 242 239 241 250 258 263 266 268 264 259 261 266 270 273 273
214 217 222 225 226 228 230 233 235 234 232 234 236 237 234 233 235 233 230 229 229 232 234 234 236 240 243 243 241 244 250 256 261 265 267 268 266 265 268 271 272 273
216 215 217 220 222 223 225 229 233 233 230 228 229 232 231 232 234 234 232 231 229 230 233 232 235 241 244 242 240 242 246 251 260 267 269 270 269 269 271 273 273 273
220 216 215 215 219 221 221 224 228 230 228 224 224 227 228 228 232 233 233 234 232 231 233 233 237 242 244 242 240 240 244 252 264 268 266 267 269 270 273 275 273 271
224 222 217 212 215 219 218 220 225 226 223 221 221 225 226 225 227 230 231 233 232 228 227 232 239 244 246 243 242 243 248 258 265 265 265 269 272 273 273 272 272 274
221 223 220 213 212 216 216 218 222 222 221 222 222 222 224 224 225 227 228 229 229 224 222 233 242 245 245 245 245 249 255 262 266 267 269 270 269 270 273 275 278 281
216 220 221 215 213 216 216 216 219 220 221 224 224 224 224 221 219 221 221 222 226 223 220 233 241 242 245 248 249 253 258 261 263 266 268 263 260 266 272 275 276 275
217 219 220 217 216 218 217 215 217 219 221 224 225 224 223 220 218 220 220 220 223 221 218 231 241 244 247 251 251 254 256 257 259 263 267 267 266 267 270 272 274 276
220 221 220 219 218 218 217 214 214 217 219 220 220 218 217 219 221 223 225 225 227 228 229 237 245 248 249 250 250 251 255 257 260 264 267 266 266 269 275 280 285 288
209 211 211 216 221 221 220 218 217 215 211 212 219 221 220 224 224 224 227 228 231 234 237 241 245 246 246 248 249 252 257 260 260 260 259 256 261 272 282 289 291 293
Height
1550 1551 1553 1554 1555 1557 1558 1560 1561 1562 1564 1565 1567 1568 1568 1569 1570 1571 1572 1573 1573 1573 1574 1574 1574 1575 1575 1576 1575 1576 1576 1576 1577 1577 1577 1577 1577 1578 1578 1578 1577 1577
1548 1550 1552 1553 1554 1555 1557 1558 1560 1561 1563 1564 1565 1567 1567 1568 1569 1569 1571 1572 1572 1572 1573 1573 1573 1573 1574 1575 1575 1575 1575 1575 1576 1576 1576 1576 1576 1576 1577 1577 1576 1576
1547 1549 1550 1552 1553 1554 1556 1557 1558 1560 1561 1562 1564 1565 1566 1567 1568 1568 1569 1570 1571 1572 1572 1572 1572 1572 1573 1574 1574 1574 1574 1574 1575 1576 1576 1575 1575 1575 1575 1575 1576 1575
1546 1547 1549 1551 1553 1554 1555 1556 1557 1558 1560 1561 1562 1563 1564 1566 1567 1567 1568 1568 1569 1570 1571 1571 1571 1572 1572 1572 1572 1573 1573 1573 1574 1574 1574 1574 1574 1574 1574 1574 1575 1574
1545 1546 1547 1550 1551 1553 1554 1555 1556 1557 1558 1560 1561 1562 1563 1563 1565 1566 1567 1567 1567 1568 1569 1569 1570 1570 1571 1571 1571 1572 1572 1573 1573 1573 1573 1573 1573 1573 1574 1574 1573 1573
1543 1544 1545 1547 1549 1551 1552 1554 1555 1556 1557 1558 1559 1560 1561 1562 1563 1564 1565 1566 1567 1567 1568 1568 1569 1569 1570 1570 1570 1570 1571 1572 1572 1572 1572 1572 1572 1572 1573 1573 1573 1572
1541 1542 1544 1545 1546 1548 1550 1552 1553 1554 1556 1557 1558 1559 1560 1560 1561 1562 1563 1564 1565 1566 1567 1567 1568 1568 1568 1569 1569 1569 1569 1570 1570 1570 1570 1571 1571 1571 1572 1572 1572 1571
1539 1540 1542 1543 1545 1546 1547 1549 1551 1552 1554 1555 1556 1557 1558 1559 1560 1560 1561 1562 1563 1564 1565 1565 1566 1566 1567 1567 1568 1568 1568 1568 1569 1569 1570 1570 1570 1570 1570 1571 1571 1570
1537 1539 1540 1541 1543 1544 1545 1547 1548 1550 1552 1553 1554 1555 1556 1557 1558 1559 1560 1560 1561 1562 1562 1563 1564 1564 1565 1566 1566 1566 1567 1567 1568 1569 1569 1569 1570 1570 1570 1570 1570 1570
1535 1536 1538 1539 1541 1542 1543 1545 1546 1548 1549 1550 1552 1553 1554 1555 1556 1557 1558 1558 1559 1559 1560 1561 1561 1562 1563 1564 1564 1565 1565 1566 1566 1567 1567 1568 1568 1569 1569 1569 1568 1567
1532 1534 1536 1537 1538 1540 1541 1543 1544 1546 1547 1548 1549 1551 1552 1553 1554 1555 1555 1556 1556 1557 1558 1559 1559 1560 1561 1562 1563 1563 1563 1564 1564 1565 1565 1566 1567 1567 1567 1566 1565 1564
1530 1531 1533 1535 1536 1538 1539 1541 1542 1544 1545 1545 1547 1548 1550 1551 1552 1553 1553 1554 1554 1555 1556 1557 1557 1558 1559 1559 1560 1561 1561 1562 1562 1563 1564 1564 1565 1564 1563 1563 1563 1563
1527 1529 1530 1532 1534 1535 1537 1539 1540 1541 1542 1543 1544 1545 1547 1548 1549 1550 1551 1551 1552 1553 1554 1555 1555 1556 1557 1557 1558 1559 1559 1559 1560 1561 1562 1562 1562 1561 1560 1561 1562 1561
1523 1526 1527 1529 1531 1533 1534 1536 1538 1539 1540 1541 1542 1543 1544 1545 1546 1548 1548 1549 1550 1551 1552 1553 1553 1554 1554 1555 1556 1556 1557 1558 1558 1559 1560 1560 1560 1559 1559 1559 1559 1559
1520 1522 1524 1526 1527 1529 1531 1532 1534 1536 1537 1539 1540 1541 1542 1543 1544 1545 1546 1547 1548 1548 1550 1550 1551 1552 1553 1553 1554 1554 1555 1556 1556 1557 1557 1558 1558 1557 1557 1557 1556 1556
1516 1518 1520 1522 1524 1525 1527 1529 1531 1533 1534 1535 1536 1538 1539 1540 1541 1542 1543 1544 1545 1546 1547 1548 1548 1549 1550 1550 1551 1552 1553 1553 1554 1554 1555 1556 1556 1556 1555 1555 1554 1554
1513 1514 1516 1518 1520 1522 1524 1526 1528 1529 1531 1532 1533 1534 1536 1537 1538 1539 1540 1542 1543 1544 1545 1545 1546 1546 1546 1547 1549 1550 1550 1551 1552 1552 1552 1553 1554 1554 1553 1553 1552 1552
1510 1511 1513 1515 1517 1519 1521 1522 1524 1526 1527 1529 1530 1531 1533 1534 1535 1536 1537 1539 1540 1542 1542 1543 1544 1543 1543 1545 1546 1547 1548 1549 1550 1550 1550 1550 1551 1551 1551 1550 1550 1550
1506 1508 1509 1512 1514 1516 1517 1519 1521 1522 1524 1525 1527 1528 1529 1531 1532 1533 1535 1536 1538 1539 1540 1541 1541 1540 1541 1543 1544 1545 1546 1547 1548 1548 1548 1548 1548 1548 1548 1547 1546 1547
1504 1505 1506 1508 1510 1512 1514 1516 1517 1519 1521 1523 1524 1525 1526 1528 1529 1531 1532 1533 1535 1536 1538 1538 1537 1537 1539 1541 1542 1543 1544 1545 1546 1546 1546 1546 1546 1545 1545 1544 1544 1544
1501 1502 1503 1504 1506 1509 1511 1512 1514 1516 1518 1520 1521 1522 1523 1525 1526 1528 1529 1531 1532 1534 1535 1534 1534 1535 1537 1538 1540 1541 1542 1543 1543 1543 1544 1544 1544 1543 1543 1542 1541 1541
1498 1499 1500 1501 1503 1505 1507 1509 1511 1513 1515 1516 1517 1519 1520 1522 1524 1525 1526 1528 1529 1531 1532 1531 1531 1533 1535 1536 1538 1539 1540 1541 1541 1541 1542 1542 1542 1541 1541 1540 1540 1539
1495 1497 1498 1499 1501 1503 1504 1506 1508 1510 1511 1512 1513 1515 1517 1519 1521 1522 1524 1525 1526 1528 1528 1527 1528 1531 1533 1534 1535 1536 1537 1538 1539 1539 1539 1540 1539 1539 1538 1538 1537 1537
1494 1495 1497 1498 1499 1501 1502 1504 1506 1507 1508 1509 1510 1512 1514 1516 1517 1518 1520 1522 1523 1524 1525 1524 1526 1528 1530 1532 1533 1534 1535 1536 1536 1536 1536 1537 1536 1535 1535 1535 1534 1534
1492 1493 1494 1496 1497 1499 1500 1501 1503 1504 1506 1507 1508 1509 1510 1513 1514 1516 1517 1519 1520 1522 1522 1523 1524 1526 1528 1529 1531 1532 1532 1533 1533 1533 1534 1534 1533 1532 1532 1532 1531 1531
1490 1491 1492 1493 1495 1496 1497 1499 1500 1502 1504 1504 1505 1506 1508 1510 1511 1513 1514 1516 1518 1519 1521 1521 1522 1524 1525 1527 1529 1530 1530 1530 1530 1530 1530 1530 1530 1530 1530 1530 1530 1530